{"data":{"norad_id":59800,"epoch":"2026-05-24T23:46:47.688672Z","epoch_age_seconds":69135,"freshness":"FRESH","line1":"1 59800U 24093U   26144.99082973  .00000302  00000+0  20499-4 0  9996","line2":"2 59800  43.0007 138.0742 0001068 275.7427  84.3303 15.27576355114432","mean_motion":15.27576355,"eccentricity":0.0001068,"inclination_deg":43.0007,"raan_deg":138.0742,"arg_perigee_deg":275.7427,"mean_anomaly_deg":84.3303,"bstar":2.0499e-5,"rev_number":11443,"period_min":94.26697364663,"perigee_km":482.32723466192,"apogee_km":483.79278634336,"semimajor_km":6861.1970105026,"source":"CELESTRAK","updated_at":"2026-05-25T13:38:19.083703Z"}}